Location: Coche
(10.4506°N, 66.9257°W)
Time: 05:50:55
(UTC+00:00)

YAOGAN 1 - Pass Details

Date: 07 July 2022
Orbit: 617 x 619 km, 97.9° (Epoch: 12 August)

Event Time Altitude Azimuth Distance (km) Brightness Sun altitude
Exits shadow 23:29:28 - 163° (SSE) 2,888 5.6 -8.8°
Rises 23:29:28 0° 163° (SSE) 2,883 5.6 -8.8°
Reaches altitude 10° 23:31:40 10° 160° (SSE) 1,978 4.7 -9.3°
Maximum altitude 23:35:56 67° 78° (ENE) 672 2.5 -10.2°
Drops below altitude 10° 23:40:12 10° 356° (N) 1,978 5.6 -11.2°
Sets 23:42:24 0° 353° (N) 2,883 6.5 -11.7°
